FW6550 Weather Reports


time (UTC)temp
F
wind
direction
speed
knots
gust
knots
rain 1hr
in
rain 24hr
in
rain mn
in
humidity
%
barometer
mb
20260504081534 49 0 0.0 0.0 0.00 0.00 0.00 61 1017.4
20260504044532 53 0 0.0 0.0 0.00 0.00 0.00 80 1018.7
20260504043031 54 0 0.0 0.0 0.00 0.00 0.00 80 1018.9
20260504041534 54 0 0.0 0.0 0.00 0.00 0.00 79 1018.8
20260504040041 54 0 0.0 0.0 0.00 0.00 0.00 79 1018.9
20260504034536 55 0 0.0 0.0 0.00 0.00 0.00 77 1018.9
20260504033037 55 0 0.0 0.0 0.00 0.00 0.00 76 1019.0
20260504031538 56 0 0.0 0.0 0.00 0.00 0.00 74 1018.9
20260504030034 56 0 0.0 0.0 0.00 0.00 0.00 74 1018.9
20260504024535 57 0 0.0 0.0 0.00 0.00 0.00 69 1019.0
20260504023033 58 0 0.0 0.0 0.00 0.00 0.00 67 1018.7
20260504021532 58 0 0.0 0.0 0.00 0.00 0.00 67 1018.7
20260504020032 59 0 0.0 0.0 0.00 0.00 0.00 65 1018.7
20260504014532 60 0 0.0 0.0 0.00 0.00 0.00 61 1018.5
20260504013035 61 0 0.0 0.0 0.00 0.00 0.00 58 1018.3
20260504011534 63 0 0.0 0.0 0.00 0.00 0.00 58 1018.2
20260504010032 64 0 0.0 0.0 0.00 0.00 0.00 55 1018.2
20260504004539 66 0 0.0 0.0 0.00 0.00 0.00 53 1018.3
20260504003039 68 0 0.0 0.0 0.00 0.00 0.00 50 1018.1
20260504001538 69 0 0.0 0.0 0.00 0.00 0.00 45 1018.3
20260504000052 70 0 0.0 1.7 0.00 0.00 0.00 41 1018.1
20260503234544 71 341 0.0 2.6 0.00 0.00 0.00 40 1018.0
20260503233033 71 0 0.0 3.5 0.00 0.00 0.00 38 1018.2
20260503231532 72 15 0.0 3.5 0.00 0.00 0.00 39 1018.1
20260503230032 72 69 0.0 3.5 0.00 0.00 0.00 37 1018.0
20260503224530 72 0 0.9 3.5 0.00 0.00 0.00 38 1018.2
20260503223037 72 308 0.9 4.3 0.00 0.00 0.00 38 1018.2
20260503221546 72 296 0.0 5.2 0.00 0.00 0.00 40 1018.1
20260503220034 72 360 0.9 7.0 0.00 0.00 0.00 40 1018.4
20260503214533 72 298 1.7 7.8 0.00 0.00 0.00 36 1018.4
20260503213032 73 292 1.7 7.0 0.00 0.00 0.00 39 1018.5
20260503211533 73 0 2.6 7.8 0.00 0.00 0.00 37 1018.7
20260503210030 73 312 1.7 7.8 0.00 0.00 0.00 39 1019.1
20260503204529 73 276 1.7 4.3 0.00 0.00 0.00 41 1019.3
20260503203041 73 37 1.7 6.1 0.00 0.00 0.00 40 1019.4
20260503201536 73 333 0.0 6.1 0.00 0.00 0.00 38 1019.7
20260503200035 73 262 2.6 8.7 0.00 0.00 0.00 40 1020.0
20260503194534 74 360 2.6 7.8 0.00 0.00 0.00 40 1020.3
20260503193033 73 348 0.9 4.3 0.00 0.00 0.00 38 1020.4
20260503191530 74 22 1.7 9.6 0.00 0.00 0.00 39 1020.8
20260503190038 72 323 1.7 8.7 0.00 0.00 0.00 37 1021.1
20260503184533 72 11 1.7 7.0 0.00 0.00 0.00 41 1021.3
20260503183033 72 314 1.7 5.2 0.00 0.00 0.00 46 1021.5
20260503181537 72 329 1.7 8.7 0.00 0.00 0.00 42 1021.8
20260503180040 71 0 1.7 7.8 0.00 0.00 0.00 43 1021.9
20260503174534 72 322 1.7 5.2 0.00 0.00 0.00 41 1022.1
20260503173050 72 34 2.6 7.8 0.00 0.00 0.00 43 1022.4
20260503171537 72 278 1.7 6.1 0.00 0.00 0.00 46 1022.5